Location: Krakow
(50.0830°N, 19.9170°E)
Time: 08:07:00
(UTC+02:00)

Tiros 1 despin weight - Pass Details

Date: 21 March 2026
Orbit: 555 x 592 km, 48.2° (Epoch: 18 April)

Event Time Altitude Azimuth Distance (km) Brightness Sun altitude
Rises 07:39:20 0° 280° (W) 2,812 ? 17.7°
Reaches altitude 10° 07:41:48 10° 270° (W) 1,904 ? 18.1°
Maximum altitude 07:45:39 31° 208° (SSW) 1,027 ? 18.6°
Drops below altitude 10° 07:49:27 10° 146° (SE) 1,876 ? 19.2°
Sets 07:51:52 0° 136° (SE) 2,764 ? 19.6°
